This is the latest recevied weather packets stored in our database for station/object N5TDX. If no packets are shown the sender has not sent any weather packets the latest 10 day(s).
| Time | Temp. | Humidity | Pressure | Rain* | Wind** | Luminosity | Snow |
|---|---|---|---|---|---|---|---|
| 1788298532 | 38.33° C | 33% | 1010.7 hPa | 0 mm | - | - | - |
| 1788298232 | 38.33° C | 33% | 1010.8 hPa | 0 mm | - | - | - |
| 1788297932 | 38.33° C | 32% | 1010.7 hPa | 0 mm | - | - | - |
| 1788297629 | 38.33° C | 32% | 1011 hPa | 0 mm | - | - | - |
| 1788297323 | 37.78° C | 34% | 1010.8 hPa | 0 mm | - | - | - |
| 1788297020 | 37.78° C | 33% | 1011 hPa | 0 mm | - | - | - |
| 1788296715 | 37.78° C | 34% | 1011.3 hPa | 0 mm | - | - | - |
| 1788296411 | 37.78° C | 34% | 1011.1 hPa | 0 mm | - | - | - |
| 1788296106 | 37.22° C | 34% | 1011.2 hPa | 0 mm | - | - | - |
| 1788295800 | 37.78° C | 33% | 1011.3 hPa | 0 mm | - | - | - |
| 1788295497 | 38.33° C | 33% | 1011.1 hPa | 0 mm | - | - | - |
| 1788295196 | 38.33° C | 34% | 1011.1 hPa | 0 mm | - | - | - |
| 1788294892 | 38.33° C | 33% | 1011.5 hPa | 0 mm | - | - | - |
| 1788294586 | 38.33° C | 34% | 1011.3 hPa | 0 mm | - | - | - |
| 1788294281 | 37.78° C | 35% | 1011.6 hPa | 0 mm | - | - | - |
| 1788293977 | 38.89° C | 33% | 1011.4 hPa | 0 mm | - | - | - |
| 1788293671 | 38.89° C | 33% | 1011.5 hPa | 0 mm | - | - | - |
| 1788293366 | 38.89° C | 33% | 1011.8 hPa | 0 mm | - | - | - |
| 1788293061 | 38.89° C | 33% | 1011.6 hPa | 0 mm | - | - | - |
| 1788292760 | 38.33° C | 33% | 1011.6 hPa | 0 mm | - | - | - |
| 1788292459 | 37.78° C | 34% | 1011.9 hPa | 0 mm | - | - | - |
| 1788292154 | 37.78° C | 36% | 1011.6 hPa | 0 mm | - | - | - |
| 1788291849 | 38.33° C | 34% | 1011.9 hPa | 0 mm | - | - | - |
| 1788291545 | 37.78° C | 35% | 1011.8 hPa | 0 mm | - | - | - |
| 1788291244 | 38.33° C | 34% | 1012.2 hPa | 0 mm | - | - | - |
* Rain latest hour (hover to see other rain measurements)
** Current wind speed in m/s (hover to see current wind gust speed)